Location: Buch
(50.1863°N, 11.0141°E)
Time: 01:23:33
(UTC+00:00)

CZ-2C R/B - Pass Details

Date: 18 January 2020
Orbit: 669 x 783 km, 98.1° (Epoch: 28 February)

Event Time Altitude Azimuth Distance (km) Brightness Sun altitude
Rises 04:07:41 0° 11° (N) 3,148 5.8 -28.2°
Reaches altitude 10° 04:09:57 10° 8° (N) 2,240 5.0 -27.8°
Enters shadow 04:11:40 22° 3° (N) 1,590 4.1 -27.5°
